[[{"header":{"parameterUnit":"m.s-1","parameterCategory":1,"la1":30.2991,"la2":30.254,"lo1":-89.0895,"lo2":-89.0444,"dy":0.0017,"dx":0.0017,"nx":28,"ny":28,"refTime":"2025-06-18T21:00:00:Z","depth":0,"parameterNumber":2,"parameterNumberName":"U-component_of_WINDS"},"data":[0,0,0,0,0,0,0,0,0,0,0,0,0,0,0,0,0,0,0,0,0,0,0,0,0,0,0,0,0,0,0,0,0,0,0,0,0,0,0,0,0,0,0,0,0,0,0,0,0,0,0,0,0,0,0,0,0,0,2.4674,2.4675,0,2.4768,2.4769,2.477,2.4745,2.4743,2.4742,2.474,2.4838,2.4842,2.4847,0,0,0,0,0,0,0,0,0,0,0,0,0,2.4474,2.4478,2.4674,2.4675,2.4677,2.4768,2.4769,2.477,2.4746,2.4743,2.4741,2.4739,2.4837,2.4842,2.4847,0,0,0,0,0,0,0,0,0,0,0,0,0,2.4564,2.4479,2.4674,2.4675,2.4676,2.4768,2.4769,2.4771,2.4746,2.4743,2.474,2.4738,2.4835,2.4841,2.4848,2.4944,0,0,2.4868,2.487,0,0,0,0,0,0,0,0,2.4559,2.4571,2.4674,2.4675,2.4677,2.4742,2.4735,2.4829,2.4747,2.472,2.474,2.4737,2.4808,2.4817,2.4841,2.4949,2.4953,2.4868,2.4872,2.4875,2.4877,0,0,0,0,0,0,0,2.4553,2.4567,2.4711,2.4675,2.4677,2.4671,2.4681,2.4752,2.4779,2.4722,2.472,2.4732,2.4809,2.4835,2.4843,2.4955,2.4868,2.4874,2.4878,2.488,2.5144,2.5147,0,0,0,0,0,0,2.4545,2.4562,2.4708,2.4714,2.4609,2.4677,2.4688,2.4724,2.4778,2.4783,2.4734,2.473,2.4825,2.4835,2.4846,2.4961,2.4875,2.4881,2.4885,2.5141,2.5145,2.5148,0,0,0,0,0,0,2.4541,2.4558,2.4705,2.4638,2.4656,2.4683,2.4724,2.4727,2.4753,2.4787,2.4792,2.4755,2.4823,2.4837,2.4919,2.4964,2.4884,2.489,2.5137,2.5142,2.5146,2.5192,0,0,0,0,0,0,2.4535,2.4557,2.4594,2.4639,2.4659,2.4776,2.4727,2.4731,2.4764,2.476,2.4808,2.4814,2.4822,2.491,2.4926,2.4972,2.4895,2.5134,2.514,2.5145,2.5187,2.5198,2.5207,0,0,0,0,0,2.4528,2.4604,2.4596,2.4614,2.4706,2.4779,2.4791,2.4798,2.4768,2.4805,2.4826,2.4812,2.4957,2.4918,2.4936,2.4985,2.5131,2.5138,2.5145,2.5182,2.5196,2.5207,0,0,0,0,0,0,2.4565,2.461,2.4602,2.4694,2.4733,2.4774,2.4822,2.4812,2.4861,2.4855,2.4862,2.4873,2.4957,2.498,2.4936,2.508,2.5039,2.505,2.5062,2.5075,2.5085,2.5077,2.4901,0,0,0,0,0,2.4584,2.4639,2.4675,2.4754,2.4773,2.4794,2.4826,2.4828,2.4868,2.4885,2.4912,2.4953,2.5007,2.5042,2.5094,2.519,2.52,2.5232,2.5243,2.5251,2.526,2.531,2.5324,2.5171,2.5171,2.5171,0,0,2.4624,2.4655,2.469,2.4762,2.4792,2.4848,2.4808,2.487,2.4911,2.4895,2.4973,2.4995,2.504,2.5129,2.5169,2.515,2.5304,2.526,2.5266,2.527,2.5318,2.5333,2.5346,2.5176,2.5175,2.5174,0,0,2.4725,2.4755,2.4822,2.4852,2.4898,2.4911,2.4927,2.497,2.4983,2.5062,2.5049,2.5099,2.5193,2.5225,2.5254,2.5364,2.5352,2.5381,2.5434,2.5483,2.5495,2.5506,2.5543,2.5557,2.539,2.539,2.5391,0,2.4769,2.4852,2.4858,2.492,2.4951,2.4937,2.5005,2.5035,2.5095,2.5117,2.5094,2.521,2.524,2.5335,2.5361,2.5386,2.5404,2.5375,2.5493,2.5504,2.5514,2.5549,2.5564,2.5394,2.5393,2.5393,2.5393,0,2.4903,2.4961,2.501,2.5067,2.5104,2.5169,2.5184,2.5221,2.5219,2.5235,2.5314,2.5349,2.5407,2.543,2.543,2.5524,2.551,2.5491,2.545,2.5531,2.5565,2.5579,2.5398,2.5397,2.5396,2.5395,0,0,2.503,2.5088,2.5105,2.513,2.5178,2.5223,2.5287,2.5342,2.5373,2.5415,2.5467,2.5546,2.5527,2.556,2.5563,2.5606,2.5689,2.558,2.5582,2.5598,2.5793,2.5806,2.5822,2.5681,2.5684,2.5686,2.5788,0,2.5133,2.5244,2.525,2.535,2.5403,2.539,2.5445,2.5481,2.5496,2.5544,2.5561,2.5616,2.5588,2.5607,2.5649,2.567,2.5728,2.5663,2.573,2.5732,2.5717,2.584,2.5855,2.5949,2.5801,2.5804,2.5805,0,2.5269,2.5313,2.5418,2.5456,2.5479,2.5528,2.5578,2.5623,2.5663,2.5671,2.5706,2.5703,2.5768,2.5726,2.5814,2.5769,2.5797,2.5811,2.5815,2.582,2.5772,2.5846,2.5979,2.5993,2.5827,2.5825,2.5823,0,2.5348,2.5434,2.5507,2.5529,2.5576,2.5611,2.5632,2.5669,2.5701,2.5745,2.5766,2.5817,2.5845,2.5885,2.5895,2.5864,2.5983,2.5942,2.5991,2.599,2.6015,2.6013,2.6152,2.6037,2.6036,2.6036,2.6036,0,2.5461,2.5526,2.5543,2.5588,2.5659,2.5666,2.5736,2.5755,2.5788,2.5836,2.5829,2.5874,2.5886,2.5934,2.5943,2.6013,2.6027,2.6034,2.6036,2.6034,2.6033,2.6051,2.6044,2.604,2.6039,2.6038,2.6038,0,2.5562,2.5576,2.5655,2.5692,2.5703,2.5754,2.5786,2.5829,2.5843,2.5904,2.5919,2.5942,2.5997,2.6012,2.6079,2.6085,2.6167,2.6163,2.6153,2.6153,2.6199,2.6194,2.6354,2.6374,2.6247,2.6248,2.6249,0,2.5632,2.5681,2.5723,2.5754,2.5777,2.5828,2.5859,2.5868,2.5901,2.5949,2.5986,2.604,2.6083,2.6173,2.6195,2.6246,2.6242,2.6295,2.625,2.6246,2.624,2.6236,2.624,2.6303,2.6304,2.6305,2.6306,0,2.5756,2.576,2.5806,2.5854,2.5892,2.593,2.5967,2.5993,2.6006,2.6045,2.61,2.6134,2.6201,2.6254,2.6305,2.6327,2.6319,2.632,2.6334,2.6332,2.6323,2.6326,2.6174,2.6316,2.6315,2.6314,2.6314,2.6313,2.5842,2.5884,2.5919,2.597,2.5998,2.6032,2.6073,2.6092,2.6138,2.6193,2.6195,2.6255,2.6292,2.6359,2.6384,2.6431,2.6415,2.6435,2.644,2.6444,2.6447,2.6316,2.644,2.644,2.644,2.644,2.6439,0,2.5963,2.5984,2.6031,2.6082,2.6121,2.6109,2.6149,2.6183,2.6235,2.627,2.6312,2.6375,2.6427,2.6453,2.6504,2.6536,2.6533,2.6549,2.6546,2.6551,2.6459,2.6441,2.655,2.655,2.655,2.655,2.655,2.655,2.603,2.6099,2.6107,2.619,2.6211,2.6269,2.6292,2.6323,2.635,2.6421,2.6463,2.6479,2.651,2.6562,2.6609,2.6615,2.6633,2.6651,2.6655,2.6569,2.6557,2.6547,2.653,2.6655,2.6655,2.6742,2.6743,2.6743]},{"header":{"parameterUnit":"m.s-1","parameterCategory":1,"la1":30.2991,"la2":30.254,"lo1":-89.0895,"lo2":-89.0444,"dy":0.0017,"dx":0.0017,"nx":28,"ny":28,"refTime":"2025-06-18T21:00:00:Z","depth":0,"parameterNumber":3,"parameterNumberName":"V-component_of_WINDS"},"data":[0,0,0,0,0,0,0,0,0,0,0,0,0,0,0,0,0,0,0,0,0,0,0,0,0,0,0,0,0,0,0,0,0,0,0,0,0,0,0,0,0,0,0,0,0,0,0,0,0,0,0,0,0,0,0,0,0,0,0.6762,0.6763,0,0.6836,0.6836,0.6837,0.6847,0.6846,0.6845,0.6845,0.6926,0.6929,0.6931,0,0,0,0,0,0,0,0,0,0,0,0,0,0.6634,0.6636,0.6762,0.6763,0.6764,0.6835,0.6836,0.6837,0.6847,0.6846,0.6845,0.6844,0.6925,0.6928,0.6932,0,0,0,0,0,0,0,0,0,0,0,0,0,0.6697,0.6637,0.6762,0.6777,0.6779,0.6835,0.6837,0.6838,0.6847,0.6846,0.6845,0.6844,0.6924,0.6928,0.6932,0.698,0,0,0.6945,0.6947,0,0,0,0,0,0,0,0,0.6693,0.6702,0.6774,0.6776,0.6778,0.6831,0.6821,0.6886,0.6847,0.6821,0.6845,0.6843,0.6895,0.6902,0.6918,0.6984,0.6987,0.6945,0.6948,0.695,0.6951,0,0,0,0,0,0,0,0.6689,0.6699,0.6791,0.6775,0.6778,0.6782,0.6789,0.6833,0.6864,0.6824,0.6824,0.6833,0.6896,0.6914,0.692,0.6989,0.6945,0.6949,0.6952,0.6953,0.7097,0.7099,0,0,0,0,0,0,0.6681,0.6695,0.6789,0.6793,0.6732,0.6785,0.6793,0.6815,0.6863,0.6869,0.6833,0.6833,0.6907,0.6915,0.6923,0.6982,0.695,0.6954,0.6956,0.7096,0.7098,0.7099,0,0,0,0,0,0,0.6678,0.6689,0.6786,0.6744,0.6757,0.6788,0.6812,0.6817,0.6835,0.6871,0.6877,0.6846,0.6907,0.6917,0.6965,0.6985,0.6956,0.696,0.7095,0.7097,0.7098,0.7101,0,0,0,0,0,0,0.6675,0.6688,0.6706,0.6745,0.6759,0.6825,0.6814,0.6819,0.6841,0.6841,0.6884,0.689,0.6907,0.6959,0.697,0.6991,0.6963,0.7093,0.7096,0.7098,0.71,0.7103,0.7106,0,0,0,0,0,0.667,0.6705,0.6707,0.6718,0.6781,0.6826,0.6835,0.6852,0.6843,0.6862,0.6885,0.6888,0.6981,0.6964,0.6976,0.6999,0.7092,0.7095,0.7098,0.7098,0.7103,0.7106,0,0,0,0,0,0,0.667,0.671,0.6713,0.6761,0.679,0.6828,0.6852,0.6856,0.689,0.6889,0.691,0.692,0.6967,0.6988,0.6968,0.7048,0.7036,0.7041,0.7032,0.7037,0.704,0.7034,0.6966,0,0,0,0,0,0.6675,0.6707,0.6741,0.6781,0.6795,0.6821,0.6841,0.6852,0.6883,0.6896,0.6923,0.6955,0.6992,0.7015,0.7051,0.7103,0.7112,0.7124,0.7127,0.713,0.7135,0.7164,0.7169,0.7108,0.7108,0.7108,0,0,0.6687,0.6713,0.6732,0.6781,0.6805,0.6839,0.6831,0.6867,0.6893,0.6903,0.6949,0.697,0.7007,0.7057,0.7081,0.7076,0.7153,0.7134,0.7135,0.7139,0.7167,0.7173,0.7178,0.711,0.711,0.711,0,0,0.6726,0.6748,0.6783,0.6807,0.6842,0.6859,0.6867,0.6904,0.6918,0.6964,0.6972,0.7004,0.7066,0.7092,0.7114,0.7162,0.7167,0.7173,0.719,0.7218,0.7223,0.7227,0.7244,0.725,0.7177,0.7177,0.7177,0,0.6737,0.6786,0.6801,0.6837,0.6858,0.6866,0.6903,0.6925,0.6971,0.6987,0.698,0.7058,0.7084,0.714,0.7151,0.7168,0.718,0.7168,0.722,0.7225,0.7229,0.7246,0.7253,0.7178,0.7178,0.7178,0.7178,0,0.6798,0.6832,0.6856,0.6898,0.6922,0.6958,0.698,0.7003,0.7012,0.703,0.7078,0.7108,0.715,0.7164,0.7174,0.7222,0.7218,0.7216,0.7205,0.7235,0.7251,0.7258,0.7178,0.7178,0.7178,0.7178,0,0,0.6839,0.6888,0.6896,0.6915,0.6954,0.6982,0.7019,0.7057,0.7077,0.7108,0.714,0.7192,0.719,0.7214,0.7227,0.7251,0.7287,0.7246,0.7247,0.7253,0.7343,0.7344,0.7351,0.729,0.7292,0.7293,0.7339,0,0.6883,0.6946,0.696,0.7015,0.7047,0.7055,0.7087,0.7115,0.7133,0.7164,0.7184,0.7221,0.7215,0.723,0.7254,0.7277,0.7306,0.7274,0.7322,0.7323,0.7312,0.736,0.7361,0.7404,0.7346,0.7347,0.7348,0,0.6942,0.6972,0.7029,0.7063,0.7077,0.7106,0.7142,0.7171,0.7204,0.7215,0.7242,0.7251,0.7291,0.7277,0.7333,0.7311,0.7332,0.7346,0.7348,0.7354,0.7337,0.7367,0.7418,0.7424,0.7358,0.7357,0.7356,0,0.6966,0.7022,0.7063,0.7079,0.712,0.7139,0.7158,0.7189,0.7211,0.7244,0.7259,0.7296,0.7317,0.7346,0.7367,0.7355,0.7421,0.7409,0.7432,0.7432,0.7446,0.7445,0.7502,0.7459,0.7459,0.7459,0.7458,0,0.7013,0.7048,0.7074,0.71,0.7139,0.7156,0.7195,0.7214,0.7242,0.7272,0.7282,0.7311,0.7335,0.7368,0.7384,0.7428,0.7437,0.7448,0.7452,0.7448,0.7446,0.7462,0.7459,0.746,0.746,0.746,0.7459,0,0.7047,0.7066,0.7111,0.7146,0.7155,0.7183,0.7213,0.7239,0.7256,0.7295,0.7305,0.7333,0.7372,0.7394,0.7444,0.7455,0.7504,0.7506,0.7492,0.7494,0.7516,0.7514,0.7585,0.7595,0.7545,0.7545,0.7546,0,0.7076,0.7103,0.7139,0.7159,0.7177,0.7209,0.7231,0.7249,0.7272,0.7311,0.7333,0.7371,0.7403,0.7465,0.7491,0.7529,0.7533,0.7555,0.7539,0.7533,0.7533,0.7531,0.7534,0.7558,0.7558,0.7559,0.7559,0,0.7125,0.7133,0.7163,0.7196,0.7222,0.725,0.7278,0.7294,0.7317,0.7343,0.7381,0.7406,0.7455,0.7494,0.7534,0.7555,0.7561,0.7564,0.7571,0.7567,0.7557,0.7563,0.75,0.7562,0.7562,0.7562,0.7562,0.7561,0.7158,0.7181,0.721,0.7244,0.7266,0.7292,0.7317,0.7337,0.7369,0.7409,0.7418,0.7459,0.7491,0.7545,0.7567,0.76,0.7596,0.7607,0.761,0.7613,0.7613,0.7552,0.7607,0.7607,0.7607,0.7607,0.7607,0,0.7207,0.7225,0.7256,0.7293,0.732,0.7321,0.7352,0.7375,0.741,0.7439,0.7469,0.7513,0.7551,0.7579,0.7618,0.7639,0.7643,0.7649,0.7648,0.7652,0.7614,0.7604,0.7645,0.7645,0.7645,0.7645,0.7645,0.7645,0.7236,0.7276,0.7287,0.7338,0.7358,0.7395,0.7413,0.7437,0.746,0.7508,0.7538,0.7556,0.7585,0.7626,0.7661,0.7668,0.7682,0.7687,0.7696,0.7659,0.7655,0.7651,0.7642,0.769,0.769,0.7731,0.7732,0.7732]}]]